Home > Weather > Osnabrück > Past weeks

Flag for Germany Past Weather in Osnabrück, Lower Saxony, Germany — Yesterday and Last 2 Weeks

Now
61 °F

Partly sunny.


Feels Like: 61 °F
Forecast: 61 / 73 °F
Wind: 10 mph from Northeast

Location: Muenster / Osnabrueck

Current Time: May 29, 2016 at 5:36:25 PM

Latest Report: May 29, 2016 at 5:20 PM


Visibility: N/A

Pressure: 29.74 "Hg

Humidity: 88%

Dew Point: 57 °F

Location of OsnabrückLocation

Past Weather in Osnabrück — Graph

°F

Osnabrück Temperature Yesterday

Maximum temperature yesterday: 73 °F (at 12:20 PM)
Minimum temperature yesterday: 57 °F (at 12:20 AM)
Average temperature yesterday: 65 °F

High & Low Weather Summary for the Past Weeks

 TemperatureHumidityPressure
High75 °F (May 21, 3:20 PM)100% (May 19, 6:20 AM)30.09 "Hg (May 19, 6:20 AM)
Low36 °F (May 16, 3:50 AM)37% (May 18, 2:20 PM)29.68 "Hg (May 19, 1:50 AM)
Average57 °F75%29.94 "Hg
* Reported May 14 4:20 PM — May 29 4:20 PM, Osnabrück, Weather by CustomWeather, © 2016

Note: Actual official high and low records may vary slightly from our data, if they occured in-between our weather recording intervals... More about our weather records

Advertising

Osnabrück Weather History for the Previous 24 Hours

Scroll right to see more
 ConditionsComfort  
Time TempWeatherWind HumidityBarometerVisibility
4:20 PM
Sun, May 29
63 °FPartly sunny.13 mph83%29.74 "HgN/A
3:50 PM63 °FPartly sunny.14 mph83%29.74 "HgN/A
3:20 PM63 °FPartly sunny.13 mph83%29.77 "Hg4 mi
2:50 PM63 °FPartly sunny.8 mph83%29.77 "Hg4 mi
2:20 PM63 °FPartly sunny.10 mph83%29.77 "HgN/A
1:50 PM63 °FPartly sunny.8 mph83%29.77 "HgN/A
1:20 PM63 °FPartly sunny.10 mph83%29.77 "HgN/A
12:50 PM63 °FPartly sunny.9 mph83%29.77 "Hg6 mi
12:20 PM63 °FPartly sunny.12 mph83%29.77 "HgN/A
11:50 AM64 °FBroken clouds.13 mph78%29.77 "HgN/A
11:20 AM63 °FBroken clouds.9 mph83%29.77 "HgN/A
10:50 AM63 °FLight rain. Partly sunny.6 mph83%29.77 "HgN/A
10:20 AM63 °FPartly sunny.7 mph83%29.77 "HgN/A
9:50 AM61 °FLight rain. Broken clouds.8 mph88%29.77 "HgN/A
9:20 AM61 °FBroken clouds.9 mph88%29.77 "HgN/A
8:50 AM61 °FBroken clouds.7 mph88%29.77 "HgN/A
8:20 AM61 °FBroken clouds.6 mph83%29.77 "HgN/A
7:50 AM61 °FPartly sunny.8 mph83%29.77 "HgN/A
7:20 AM61 °FPartly sunny.7 mph83%29.77 "HgN/A
6:50 AM61 °FSprinkles. Broken clouds.6 mph83%29.77 "HgN/A
6:20 AM59 °FSprinkles. Broken clouds.6 mph88%29.80 "HgN/A
5:50 AM59 °FPartly cloudy.5 mph82%29.80 "HgN/A
5:20 AM59 °FScattered showers. Partly cloudy.6 mph82%29.80 "HgN/A
4:50 AM61 °FSprinkles. Partly cloudy.6 mph77%29.80 "HgN/A
4:20 AM61 °FSprinkles. Partly cloudy.6 mph77%29.80 "HgN/A
3:50 AM61 °FSprinkles. Partly cloudy.2 mph77%29.80 "HgN/A
3:20 AM61 °FScattered showers. Passing clouds.3 mph77%29.83 "HgN/A
2:50 AM61 °FPassing clouds.5 mph77%29.83 "HgN/A
2:20 AM61 °FPassing clouds.5 mph77%29.83 "HgN/A
1:50 AM61 °FPassing clouds.3 mph77%29.83 "HgN/A
1:20 AM61 °FPassing clouds.5 mph77%29.83 "HgN/A
12:50 AM61 °FPassing clouds.5 mph77%29.83 "HgN/A
12:20 AM63 °FPassing clouds.5 mph73%29.83 "HgN/A
11:50 PM
Sat, May 28
63 °FPassing clouds.3 mph73%29.86 "HgN/A
11:20 PM63 °FPassing clouds.3 mph73%29.86 "HgN/A
10:50 PM63 °FPassing clouds.5 mph77%29.86 "HgN/A
10:20 PM64 °FSunny.2 mph73%29.86 "Hg10 mi
9:50 PM64 °FPassing clouds.3 mph73%29.86 "HgN/A
9:20 PM66 °FPassing clouds.3 mph68%29.86 "HgN/A
8:50 PM68 °FPassing clouds.3 mph64%29.86 "HgN/A
8:20 PM68 °FPassing clouds.3 mph69%29.86 "HgN/A
7:50 PM70 °FScattered showers. Broken clouds.3 mph60%29.86 "HgN/A
7:20 PM70 °FScattered showers. Broken clouds.5 mph64%29.86 "HgN/A
6:50 PM70 °FSprinkles. Broken clouds.6 mph64%29.86 "HgN/A
6:20 PM72 °FSprinkles. Broken clouds.6 mph65%29.86 "HgN/A
5:50 PM70 °FScattered clouds.9 mph64%29.86 "HgN/A
5:20 PM68 °FScattered showers. Partly sunny.8 mph73%29.86 "HgN/A
Weather by CustomWeather, © 2016

See weather overviewHow to use our weather pages